GW3329 Weather Reports


time (UTC)temp
F
wind
direction
speed
knots
gust
knots
rain 1hr
in
rain 24hr
in
rain mn
in
humidity
%
barometer
mb
20260503005055 69 242 0.0 1.7 0.00 0.00 0.00 70 1014.3
20260503004550 69 173 0.0 1.7 0.00 0.00 0.00 69 1014.4
20260503004049 70 38 0.9 3.5 0.00 0.00 0.00 69 1014.4
20260503003545 70 175 0.0 2.6 0.00 0.00 0.00 68 1014.3
20260503003043 71 170 0.0 2.6 0.00 0.00 0.00 67 1014.3
20260503002539 70 39 0.0 1.7 0.00 0.00 0.00 68 1014.3
20260503002036 70 197 0.0 1.7 0.00 0.00 0.00 68 1014.4
20260503001532 70 318 3.5 5.2 0.00 0.00 0.00 68 1014.5
20260503001031 69 248 2.6 5.2 0.00 0.00 0.00 69 1014.3
20260503000528 71 183 0.9 1.7 0.00 0.00 0.00 67 1014.4
20260503000024 70 237 2.6 3.5 0.00 0.00 0.00 67 1014.4
20260502235521 70 249 1.7 6.1 0.00 0.00 0.00 67 1014.7
20260502235019 71 220 1.7 2.6 0.00 0.00 0.00 66 1014.5
20260502234515 71 216 1.7 2.6 0.00 0.00 0.00 65 1014.6
20260502234012 72 42 0.9 3.5 0.00 0.00 0.00 65 1014.8
20260502233507 72 288 1.7 2.6 0.00 0.00 0.00 65 1014.7
20260502233004 72 42 0.9 1.7 0.00 0.00 0.00 65 1014.7
20260502232500 72 166 0.0 2.6 0.00 0.00 0.00 65 1014.6
20260502231957 70 349 0.9 1.7 0.00 0.00 0.00 66 1015.0
20260502231454 71 273 1.7 6.1 0.00 0.00 0.00 67 1015.1
20260502230952 70 193 2.6 3.5 0.00 0.00 0.00 68 1014.9
20260502230450 70 277 2.6 3.5 0.00 0.00 0.00 68 1015.0
20260502225948 70 182 1.7 3.5 0.00 0.00 0.00 68 1015.0
20260502225444 71 250 0.9 5.2 0.00 0.00 0.00 66 1015.1
20260502224941 70 218 0.9 2.6 0.00 0.00 0.00 67 1015.3
20260502224437 71 247 2.6 5.2 0.00 0.00 0.00 66 1015.2
20260502223934 70 196 0.9 7.0 0.00 0.00 0.00 67 1015.5
20260502223432 70 211 1.7 1.7 0.00 0.00 0.00 67 1015.6
20260502222930 71 264 0.9 2.6 0.00 0.00 0.00 66 1015.8
20260502222427 72 98 0.0 2.6 0.00 0.00 0.00 66 1015.9
20260502221922 71 205 0.9 2.6 0.00 0.00 0.00 67 1015.9
20260502221419 70 112 0.9 5.2 0.00 0.00 0.00 67 1016.0
20260502220916 71 232 2.6 5.2 0.00 0.00 0.00 66 1016.2
20260502220412 71 174 0.9 1.7 0.00 0.00 0.00 67 1016.2
20260502215909 71 328 5.2 7.0 0.00 0.00 0.00 67 1016.4
20260502215406 71 225 3.5 6.1 0.00 0.00 0.00 67 1016.1
20260502214903 71 340 0.0 5.2 0.00 0.00 0.00 68 1016.5
20260502214359 71 254 1.7 8.7 0.00 0.00 0.00 68 1016.2
20260502213857 72 188 1.7 5.2 0.00 0.00 0.00 67 1016.3
20260502213354 72 5 1.7 2.6 0.00 0.00 0.00 65 1016.6
20260502212853 72 224 1.7 2.6 0.00 0.00 0.00 67 1016.4
20260502212351 72 272 1.7 2.6 0.00 0.00 0.00 66 1016.6
20260502211848 72 55 0.9 2.6 0.00 0.00 0.00 66 1016.6
20260502211343 72 282 2.6 3.5 0.00 0.00 0.00 66 1016.7
20260502210841 72 47 1.7 2.6 0.00 0.00 0.00 67 1016.8
20260502210338 73 142 0.9 7.0 0.00 0.00 0.00 66 1016.8
20260502205835 73 317 1.7 3.5 0.00 0.00 0.00 66 1016.7
20260502205331 72 201 1.7 3.5 0.00 0.00 0.00 66 1016.9
20260502204828 73 222 4.3 5.2 0.00 0.00 0.00 66 1016.9
20260502204325 72 53 0.9 2.6 0.00 0.00 0.00 66 1016.9
20260502203823 72 322 4.3 6.1 0.00 0.00 0.00 67 1017.0
20260502203320 72 79 1.7 6.1 0.00 0.00 0.00 67 1016.9
20260502202815 72 26 2.6 3.5 0.00 0.00 0.00 66 1016.8
20260502202313 72 126 0.9 1.7 0.00 0.00 0.00 67 1016.9
20260502201810 72 203 4.3 6.1 0.00 0.00 0.00 68 1016.8
20260502201306 72 238 1.7 3.5 0.00 0.00 0.00 67 1017.1
20260502200803 72 156 0.9 5.2 0.00 0.00 0.00 67 1016.8
20260502200258 72 93 0.9 7.0 0.00 0.00 0.00 67 1017.0
20260502195757 73 207 0.9 3.5 0.00 0.00 0.00 65 1017.3
20260502195253 73 131 1.7 5.2 0.00 0.00 0.00 65 1017.0
20260502194750 74 27 0.9 2.6 0.00 0.00 0.00 64 1017.0
20260502194247 73 81 0.9 5.2 0.00 0.00 0.00 65 1017.2
20260502193743 74 118 0.9 1.7 0.00 0.00 0.00 64 1017.2
20260502193240 74 187 0.9 3.5 0.00 0.00 0.00 63 1017.2
20260502192740 73 276 3.5 7.0 0.00 0.00 0.00 66 1017.2
20260502192238 74 261 3.5 6.1 0.00 0.00 0.00 64 1017.2
20260502191735 75 265 2.6 3.5 0.00 0.00 0.00 64 1017.4
20260502191233 75 68 0.9 1.7 0.00 0.00 0.00 64 1017.5
20260502190730 73 182 0.0 1.7 0.00 0.00 0.00 65 1017.6
20260502190227 73 255 3.5 5.2 0.00 0.00 0.00 67 1017.6
20260502185727 73 253 1.7 5.2 0.00 0.00 0.00 65 1017.7
20260502185224 72 308 0.9 2.6 0.00 0.00 0.00 67 1017.8
20260502184720 72 343 0.9 1.7 0.00 0.00 0.00 68 1018.0
20260502184216 71 256 2.6 2.6 0.00 0.00 0.00 68 1017.9
20260502183713 69 124 0.9 1.7 0.00 0.00 0.00 72 1017.8
20260502183208 69 95 0.9 1.7 0.00 0.00 0.00 72 1018.0
20260502182704 69 103 0.9 2.6 0.00 0.00 0.00 71 1018.0
20260502182159 70 78 0.9 2.6 0.00 0.00 0.00 71 1018.1
20260502181657 68 322 2.6 2.6 0.00 0.00 0.00 73 1018.1
20260502181156 69 232 2.6 3.5 0.00 0.00 0.00 73 1018.1
20260502180653 69 103 0.9 0.9 0.00 0.00 0.00 72 1018.0
20260502180150 68 57 0.9 1.7 0.00 0.00 0.00 75 1018.1
20260502170114 62 244 2.6 3.5 0.00 0.00 0.00 84 1018.8
20260502164101 63 227 0.9 2.6 0.00 0.00 0.00 83 1019.0
20260502163556 63 254 0.9 1.7 0.00 0.00 0.00 83 1018.8
20260502163053 63 146 0.9 1.7 0.00 0.00 0.00 83 1018.7
20260502162550 61 99 0.9 1.7 0.00 0.00 0.00 86 1018.5
20260502162048 60 153 0.0 1.7 0.00 0.00 0.00 89 1018.8
20260502161544 60 78 0.9 3.5 0.00 0.00 0.00 89 1018.9
20260502161042 59 105 1.7 5.2 0.00 0.00 0.00 90 1018.5
20260502160540 60 133 0.9 2.6 0.00 0.00 0.00 89 1018.5
20260502151947 55 171 0.0 0.9 0.00 0.00 0.00 99 1018.1
20260502151444 55 122 0.0 1.7 0.00 0.00 0.00 99 1018.2
20260502150941 55 195 0.0 0.9 0.00 0.00 0.00 99 1018.2
20260502150438 55 71 0.9 3.5 0.00 0.00 0.00 99 1018.1
20260502130323 53 153 0.0 0.0 0.00 0.00 0.00 99 1017.8
20260502123809 53 136 0.0 0.0 0.00 0.00 0.00 99 1017.6
20260502123306 53 131 0.0 0.0 0.00 0.00 0.00 99 1017.6
20260502122803 53 132 0.0 0.0 0.00 0.00 0.00 99 1017.6
20260502122259 53 138 0.0 0.0 0.00 0.00 0.00 99 1017.6
20260502121757 53 137 0.0 0.0 0.00 0.00 0.00 99 1017.4
20260502121254 53 157 0.0 0.0 0.00 0.00 0.00 99 1017.3
20260502120751 53 140 0.0 0.0 0.00 0.00 0.00 99 1017.2
20260502120248 53 138 0.0 0.0 0.00 0.00 0.00 99 1017.3
20260502115746 52 133 0.0 0.0 0.00 0.00 0.00 99 1017.4
20260502115242 52 132 0.0 0.0 0.00 0.00 0.00 99 1017.4
20260502114738 52 150 0.0 0.0 0.00 0.00 0.00 99 1017.5
20260502114235 52 135 0.0 0.0 0.00 0.00 0.00 99 1017.3
20260502113732 52 158 0.0 0.0 0.00 0.00 0.00 99 1017.4
20260502113230 52 142 0.0 0.0 0.00 0.00 0.00 99 1017.3
20260502112728 52 153 0.0 0.0 0.00 0.00 0.00 99 1017.2
20260502112226 52 154 0.0 0.0 0.00 0.00 0.00 99 1017.1
20260502111723 52 145 0.0 0.0 0.00 0.00 0.00 99 1017.2
20260502111220 52 147 0.0 0.0 0.00 0.00 0.00 99 1017.2
20260502110717 52 162 0.0 0.0 0.00 0.00 0.00 98 1017.1
20260502110215 52 154 0.0 0.9 0.00 0.00 0.00 98 1017.0
20260502105713 52 251 0.9 1.7 0.00 0.00 0.00 98 1016.9
20260502105209 51 205 0.0 0.9 0.00 0.00 0.00 98 1017.2
20260502104707 52 163 0.0 0.0 0.00 0.00 0.00 98 1016.8
20260502104204 52 169 0.0 0.0 0.00 0.00 0.00 98 1016.9
20260502103701 51 184 0.0 0.0 0.00 0.00 0.00 98 1016.9
20260502103159 52 192 0.0 0.0 0.00 0.00 0.00 98 1017.0
20260502102655 51 181 0.0 0.0 0.00 0.00 0.00 97 1017.0
20260502102152 52 158 0.0 0.0 0.00 0.00 0.00 97 1016.7
20260502101650 52 168 0.0 0.0 0.00 0.00 0.00 97 1016.8
20260502101148 52 207 0.0 0.0 0.00 0.00 0.00 97 1016.9
20260502100646 52 188 0.0 0.0 0.00 0.00 0.00 97 1016.9
20260502100145 52 160 0.0 0.0 0.00 0.00 0.00 97 1017.2
20260502091119 55 173 0.0 0.9 0.00 0.00 0.00 97 1016.8
20260502090615 55 187 0.0 2.6 0.00 0.00 0.00 97 1017.0
20260502090113 54 140 0.0 0.0 0.00 0.00 0.00 97 1016.8
20260502071510 54 154 0.0 0.0 0.00 0.00 0.00 96 1017.5
20260502071008 54 154 0.0 0.0 0.00 0.00 0.00 96 1017.5
20260502070506 54 154 0.0 0.0 0.00 0.00 0.00 96 1017.4
20260502070004 55 154 0.0 0.0 0.00 0.00 0.00 96 1017.2
20260502065502 54 158 0.0 0.0 0.00 0.00 0.00 96 1017.3
20260502065000 55 133 0.0 0.0 0.00 0.00 0.00 96 1017.4
20260502064458 55 146 0.0 0.0 0.00 0.00 0.00 96 1017.3
20260502063954 54 121 0.0 0.0 0.00 0.00 0.00 96 1017.3
20260502063452 54 138 0.0 0.0 0.00 0.00 0.00 96 1017.4
20260502062950 54 131 0.0 0.0 0.00 0.00 0.00 96 1017.2
20260502062447 54 128 0.0 0.0 0.00 0.00 0.00 96 1017.2
20260502061945 54 131 0.0 0.0 0.00 0.00 0.00 97 1017.3
20260502061443 53 141 0.0 0.0 0.00 0.00 0.00 97 1017.1
20260502060938 53 141 0.0 0.0 0.00 0.00 0.00 96 1017.1
20260502060434 53 141 0.0 0.0 0.00 0.00 0.00 97 1017.3
20260502055931 54 141 0.0 0.0 0.00 0.00 0.00 96 1017.3
20260502055429 54 141 0.0 0.0 0.00 0.00 0.00 96 1017.2
20260502054923 54 141 0.0 0.0 0.00 0.00 0.00 96 1017.4
20260502054420 54 141 0.0 0.0 0.00 0.00 0.00 96 1017.4
20260502053918 54 162 0.0 0.0 0.00 0.00 0.00 96 1017.4
20260502053415 54 162 0.0 0.0 0.00 0.00 0.00 96 1017.4
20260502052912 54 165 0.0 0.0 0.00 0.00 0.00 96 1017.3
20260502052411 54 165 0.0 0.0 0.00 0.00 0.00 96 1017.4
20260502051908 54 157 0.0 0.0 0.00 0.00 0.00 96 1017.4
20260502051406 54 170 0.0 0.0 0.00 0.00 0.00 96 1017.7
20260502050903 54 198 0.0 0.0 0.00 0.00 0.00 96 1017.4
20260502050359 54 171 0.0 0.0 0.00 0.00 0.00 96 1017.6
20260502045856 54 169 0.0 0.0 0.00 0.00 0.00 96 1017.5
20260502045353 55 149 0.0 0.0 0.00 0.00 0.00 96 1017.6
20260502044850 55 166 0.0 0.0 0.00 0.00 0.00 96 1017.4
20260502044346 55 166 0.0 0.0 0.00 0.00 0.00 95 1017.4
20260502043843 55 172 0.0 0.0 0.00 0.00 0.00 95 1017.6
20260502043341 55 173 0.0 0.0 0.00 0.00 0.00 95 1017.5
20260502042840 55 181 0.0 0.0 0.00 0.00 0.00 95 1017.4
20260502042338 55 167 0.0 0.0 0.00 0.00 0.00 95 1017.5
20260502041835 55 170 0.0 0.0 0.00 0.00 0.00 95 1017.4
20260502041332 55 164 0.0 0.0 0.00 0.00 0.00 94 1017.1
20260502040829 55 171 0.0 0.0 0.00 0.00 0.00 94 1017.4
20260502040326 55 183 0.0 0.0 0.00 0.00 0.00 94 1017.1
20260502035822 55 163 0.0 0.0 0.00 0.00 0.00 93 1017.3
20260502035319 55 147 0.0 0.0 0.00 0.00 0.00 93 1017.2
20260502034816 55 173 0.0 0.9 0.00 0.00 0.00 93 1017.2
20260502034315 56 173 0.0 0.0 0.00 0.00 0.00 93 1017.1
20260502033813 56 106 0.0 0.0 0.00 0.00 0.00 92 1016.9
20260502033310 56 162 0.0 0.0 0.00 0.00 0.00 92 1016.9
20260502032807 56 144 0.0 0.9 0.00 0.00 0.00 92 1016.8
20260502032305 56 185 0.0 0.9 0.00 0.00 0.00 91 1016.8
20260502031800 57 159 0.0 2.6 0.00 0.00 0.00 91 1016.6
20260502031259 57 171 0.0 1.7 0.00 0.00 0.00 91 1016.6
20260502030757 57 78 0.0 2.6 0.00 0.00 0.00 90 1016.5
20260502030254 57 201 0.9 1.7 0.00 0.00 0.00 90 1016.6
20260502025752 58 136 0.0 0.9 0.00 0.00 0.00 89 1016.5
20260502025250 58 171 0.0 0.9 0.00 0.00 0.00 88 1016.5
20260502024747 59 175 0.0 0.9 0.00 0.00 0.00 87 1016.5
20260502024245 59 190 0.0 2.6 0.00 0.00 0.00 87 1016.5
20260502023743 59 151 0.0 1.7 0.00 0.00 0.00 86 1016.4
20260502023240 60 194 0.0 1.7 0.00 0.00 0.00 85 1016.5
20260502022738 60 216 0.9 1.7 0.00 0.00 0.00 84 1016.5
20260502022233 61 297 0.0 1.7 0.00 0.00 0.00 83 1016.4
20260502021731 61 101 0.9 2.6 0.00 0.00 0.00 82 1016.3
20260502021228 61 170 0.0 0.9 0.00 0.00 0.00 81 1016.3
20260502020725 62 160 0.0 1.7 0.00 0.00 0.00 80 1015.9
20260502020222 62 175 0.0 0.9 0.00 0.00 0.00 80 1016.0
20260502015720 62 148 0.0 1.7 0.00 0.00 0.00 80 1016.2
20260502015216 63 128 0.0 0.9 0.00 0.00 0.00 79 1016.1
20260502014714 63 112 0.9 1.7 0.00 0.00 0.00 78 1016.4
20260502014211 64 64 1.7 1.7 0.00 0.00 0.00 77 1016.3
20260502013707 64 106 0.0 1.7 0.00 0.00 0.00 76 1016.1
20260502013202 64 155 0.0 0.9 0.00 0.00 0.00 76 1016.1
20260502012659 65 199 1.7 1.7 0.00 0.00 0.00 75 1016.1
20260502012157 65 184 0.9 2.6 0.00 0.00 0.00 74 1016.2
20260502011654 66 169 0.0 2.6 0.00 0.00 0.00 74 1016.2
20260502011150 67 201 1.7 3.5 0.00 0.00 0.00 72 1016.1
20260502010648 66 169 0.0 1.7 0.00 0.00 0.00 73 1016.1
20260502010143 67 83 0.0 2.6 0.00 0.00 0.00 71 1016.1
20260502005641 67 42 0.9 2.6 0.00 0.00 0.00 72 1016.3